星链-5510 (STARLINK-5510 )

导读

STARLINK-5510是美国SpaceX公司星链(Starlink)星座中的一颗低轨互联网通信卫星,于2023年2月17日由猎鹰9号火箭发射,属于星链第二代V2 Mini卫星批次。星链项目旨在通过低轨卫星群实现全球高速宽带互联网覆盖,STARLINK-5510具备更强通信能力,为全球偏远地区、移动场景提供网络接入服务,也推动了低轨卫星互联网的商业化部署。该卫星运行于约550公里高度的近地轨道,是星链大规模扩张星座的组成部分。

Basic Information
目录编号:
55647
目录名称:
STARLINK-5510
国际标识:
2023-021V
轨道中心:
EARTH
卫星名称:
星链-5510
卫星全名:
星链-5510 (STARLINK-5510 )
卫星状态:
在轨 (已飞行1295 天)
发射日期:
2023-02-17 UTC
国别 :
美国 (US)
星等 :
--
Orbit Information
数据来源 国际轨道数据
星历时间: 2026-09-04T01:31:33+0800
1天前
查看轨道信息
半长轴: 6950.207km
偏心率: 0.0002914
轨道倾角: 69.999°
近地点辐角 268.370°
升交点赤经 95.413°
平近点角 91.712°
近地点: 570.044km
远地点: 574.096km
周期: 96.107分钟
每日圈数: 14.983256
Detailed Information
固有亮度:
5
最大亮度:
2.5
卫星平台:
Starlink v1.5
覆盖范围:
全球
运营商:
太空探索技术公司
运营商所在国:
美国
制造商(研发单位):
太空探索技术公司
制造商所在国:
美国
使用方式:
暂无
Satellite Introduction
星链(Starlink)计划是由太空探索技术公司(SpaceX)提出的一个巨型低轨卫星互联网星座项目,计划在2019年至2024年间在太空搭建由约1.2万颗卫星组成的“星链”网络,其中1584颗将部署在地球上空550千米处的近地轨道,并从2020年开始工作。该卫星仍在工作。
2D Orbit Map
3D Orbit Map
Orbit Altitude Analysis Chart
Orbit Inclination Analysis Chart
Orbit Comprehensive Analysis Chart
View Comprehensive Chart
Conjunction Data List
Event ID Objects TCA Miss Dist (km) Collision Risk Probability Collision Risk Index (CRI) Action
CDM_260905-045602-409105-564724
2026-09-05T
04:56:48+0000
1.385 km
极远距离
8.609045E-6 低风险 0.54
CDM_260905-001905-564706-665824
COSMIC (66658)
2026-09-05T
00:19:39+0000
2.546 km
极远距离
1.38533E-6 低风险 0.38